Regional Weather Roundup
Issued by NWS

Home | Current Version | Previous Version | Text Only | Print | Product List | Glossary On
Versions: 1 2 3 4 5 6 7 8 9 10 11 12 13 14 15 16 17 18 19 20 21 22 23 24 25 26 27 28 29 30 31 32 33 34 35 36 37 38 39 40 41 42 43 44 45 46 47 48 49 50
000
ASUS43 KDTX 230501
RWRMI
MICHIGAN HOURLY REGIONAL WEATHER ROUNDUP
NATIONAL WEATHER SERVICE DETROIT/PONTIAC MI
1200 AM EST THU NOV 23 2017

NOTE: "FAIR" INDICATES FEW OR NO CLOUDS BELOW 12,000 FEET WITH NO
SIGNIFICANT WEATHER AND/OR OBSTRUCTION TO VISIBILITY.

MIZ047>049-052>055-059>063-066>070-074>076-081>083-230600-
SOUTHEAST LOWER MICHIGAN

CITY           SKY/WX    TMP DP  RH WIND       PRES   REMARKS
ADRIAN         CLOUDY    27  22  81 SW3       30.20F
ALMA           CLOUDY    31  24  76 SW6       30.17R WCI  25
ANN ARBOR      CLOUDY    23  21  92 CALM      30.18F
BAD AXE        CLOUDY    28  19  71 S6        30.16F WCI  21
CARO           MOCLDY    26  19  75 CALM      30.17S
DETROIT CITY   CLOUDY    28  20  71 S3        30.20F
DETROIT        CLOUDY    27  19  72 S3        30.20F
FLINT          CLOUDY    29  18  63 S7        30.18S WCI  22
GROSSE ILE     CLOUDY    29  20  69 SW6       30.20F WCI  23
HILLSDALE      CLOUDY    28  21  74 S5        30.16S WCI  23
HOWELL         CLOUDY    28  21  73 SW3       30.17S

CITY           SKY/WX    TMP DP  RH WIND       PRES   REMARKS
JACKSON        CLOUDY    29  20  69 S6        30.17F WCI  23
LAMBERTVILLE   CLOUDY    31  21  67 SW3       30.21F
LANSING        CLOUDY    29  20  69 S7        30.18S WCI  22
LAPEER         MOCLDY    28  20  72 S5        30.17F WCI  23
MASON          CLOUDY    30  22  70 CALM      30.17S
MONROE         PTCLDY    29  20  69 SW5       30.20F WCI  24
MT. CLEMENS    MOCLDY    24  22  93 SW3       30.18F
PONTIAC        CLOUDY    26  20  77 S3        30.16F
PORT HOPE        N/A     30  18  60 VRB5      30.15F WCI  25
PORT HURON     CLOUDY    25  18  74 CALM      30.19F
TRI CITIES     CLOUDY    29  22  75 S7        30.17S WCI  22
MIDLAND        CLOUDY    30  21  69 CALM      30.16S
TROY           PTCLDY    30  19  64 CALM      30.20F
SAGINAW HB     CLOUDY    28  21  74 S6        30.16F WCI  22
$$
MIZ043>046-050>051-056>058-064>065-071>073-077>080-230600-
SOUTHWEST LOWER MICHIGAN

CITY           SKY/WX    TMP DP  RH WIND       PRES   REMARKS
BATTLE CREEK   MOCLDY    29  23  78 S6        30.18S WCI  23
BENTON HARBOR  CLOUDY    32  19  58 S8        30.18F WCI  25
BIG RAPIDS     CLOUDY    29  22  74 S3        30.12S
COLDWATER      MOCLDY    31  22  70 SW6       30.18S WCI  25
FREMONT        CLOUDY    30  24  79 S3        30.14S
HOLLAND        CLOUDY    32  24  72 S8        30.17S WCI  25
GRAND RAPIDS   CLOUDY    31  25  78 SW8       30.16S WCI  23
IONIA          CLOUDY    31  23  72 SW7       30.16S WCI  24
KALAMAZOO      CLOUDY    30  22  72 SW7       30.18F WCI  23
LUDINGTON      CLOUDY    34  22  60 W10G18    30.12F WCI  26
MARSHALL       MOCLDY    29  21  71 SW3       30.17S
MOUNT PLEASANT CLOUDY    31  22  67 SW3       30.15R
MUSKEGON       CLOUDY    36  23  59 SW10      30.16S WCI  28
SOUTH HAVEN    CLOUDY    33  22  64 S6        30.18S WCI  27
$$
MIZ016>042-230600-
NORTHERN LOWER MICHIGAN

CITY           SKY/WX    TMP DP  RH WIND       PRES   REMARKS
ALPENA         CLOUDY    29  19  66 S6        30.12F WCI  23
BEAVER ISLAND  MOCLDY    33  23  68 SW12G17   30.05F WCI  24
BELLAIRE       CLOUDY    30  24  78 S6        30.10F WCI  24
CADILLAC       CLOUDY    26  21  80 SW6       30.09S WCI  20
CHARLEVOIX     CLOUDY    31  24  73 S7        30.10F WCI  25
FRANKFORT      CLOUDY    35  22  59 SW7G18    30.09F WCI  29
GAYLORD        CLOUDY    25  17  72 SW9       30.06F WCI  15
GRAYLING       CLOUDY    27  18  70 CALM      30.10F
HARBOR SPRINGS CLOUDY    30  21  69 S9        30.06F WCI  21
HOUGHTON LAKE  CLOUDY    27  19  72 SW7       30.12S WCI  19
MANISTEE       CLOUDY    30  23  75 CALM      30.12F
OSCODA         CLOUDY    29  17  60 SW7       30.14F WCI  22
PELLSTON       CLOUDY    30  20  66 S10       30.06F WCI  21
ROGERS CITY    CLOUDY    29  19  64 S8        30.09F WCI  21
TRAVERSE CITY  CLOUDY    30  21  69 S7        30.09F WCI  23
$$
MIZ007>008-015-230600-
EASTERN UPPER MICHIGAN

CITY           SKY/WX    TMP DP  RH WIND       PRES   REMARKS
KINROSS        CLOUDY    30  24  78 S7        30.02F WCI  23
MACKINAC ISLAN CLOUDY    32  21  65 S14G24    30.03F WCI  22
NEWBERRY       CLOUDY    26  23  87 SW7       30.00F WCI  19
S. S. MARIE    CLOUDY    29  25  85 CALM      30.02F
MUNISING         N/A     27  17  66 SW9       30.00F WCI  18
$$
MIZ004>006-011>014-085-230600-
CENTRAL UPPER MICHIGAN

CITY           SKY/WX    TMP DP  RH WIND       PRES   REMARKS
MANISTIQUE     CLOUDY    29  15  56 SW7       30.03F WCI  22
ESCANABA       CLOUDY    28  16  60 SW10      30.04F WCI  19
MENOMINEE      CLOUDY    29  17  61 SW8       30.08F WCI  21
SAWYER-GWINN   CLOUDY    25  15  64 SW13      29.98S WCI  14
$$
MIZ001>003-009>011-084-230600-
WESTERN UPPER MICHIGAN

CITY           SKY/WX    TMP DP  RH WIND       PRES   REMARKS
IRON MOUNTAIN  CLOUDY    26  12  55 SW6       29.99F WCI  19
HOUGHTON       CLOUDY    26  14  60 W12       29.95S WCI  16
COPPER HARBOR    N/A     27  14  58 W7G16     29.96F WCI  19
IRONWOOD       CLOUDY    23  18  81 SW10      29.97F WCI  12
$$

ABBREVIATIONS USED IN REMARKS
   TC - TEMPERATURE IN CELSIUS
  WCI - WIND CHILL INDEX
   HX - HEAT INDEX
  VSB - VISIBILITY





USA.gov is the U.S. government's official web portal to all federal, state and local government web resources and services.